Overview Statistics Trail Chart Weather Telemetry Raw packets
 

This is the latest recevied weather packets stored in our database for station/object KB1JL-13. If no packets are shown the sender has not sent any weather packets the latest 10 day(s).

<< 6 7 8 9 10 11 12 >>
Time Temp. Humidity Pressure Rain* Wind** Luminosity Snow
1788561859 24.44° C 69% 1021.9 hPa 0 mm - 16 W/m² -
1788561558 25° C 67% 1021.9 hPa 0 mm - 22 W/m² -
1788561258 25° C 67% 1021.9 hPa 0 mm - 24 W/m² -
1788560954 25° C 67% 1021.9 hPa 0 mm - 27 W/m² -
1788560649 25° C 66% 1021.9 hPa 0 mm - 33 W/m² -
1788560349 25.56° C 64% 1021.9 hPa 0 mm - 33 W/m² -
1788560043 25.56° C 63% 1021.9 hPa 0 mm - 34 W/m² -
1788559739 26.11° C 63% 1021.9 hPa 0 mm - 40 W/m² -
1788559438 26.11° C 62% 1021.9 hPa 0 mm - 42 W/m² -
1788559134 26.11° C 61% 1021.9 hPa 0 mm - 52 W/m² -
1788558829 26.11° C 62% 1021.6 hPa 0 mm - 45 W/m² -
1788558525 26.67° C 61% 1021.9 hPa 0 mm - 46 W/m² -
1788558220 26.67° C 60% 1021.6 hPa 0 mm - 113 W/m² -
1788557919 26.67° C 61% 1021.6 hPa 0 mm - 115 W/m² -
1788557613 26.67° C 61% 1021.6 hPa 0 mm - 149 W/m² -
1788557310 27.22° C 63% 1022.2 hPa 0 mm - 199 W/m² -
1788557009 27.22° C 59% 1021.9 hPa 0 mm - 217 W/m² -
1788556705 27.22° C 61% 1021.6 hPa 0 mm - 228 W/m² -
1788556400 27.22° C 60% 1021.6 hPa 0 mm - 209 W/m² -
1788556095 27.22° C 58% 1021.9 hPa 0 mm - 234 W/m² -
1788555794 27.22° C 58% 1021.9 hPa 0 mm - 271 W/m² -
1788555491 27.22° C 57% 1021.9 hPa 0 mm - 290 W/m² -
1788555186 27.22° C 59% 1021.9 hPa 0 mm - 301 W/m² -
1788554883 27.78° C 58% 1021.9 hPa 0 mm - 290 W/m² -
1788554579 27.78° C 58% 1021.9 hPa 0 mm - 337 W/m² -

* Rain latest hour (hover to see other rain measurements)
** Current wind speed in m/s (hover to see current wind gust speed)